Temp
6 5 7 7 6 5 5 5 5 6 5 5 5 4 6 6 6 6 6 6 6 7 6 6 5 5 5 5 5 5 5 5 5 5 5 5 5 5 5 5 4 4 4 4
5 5 6 5 5 5 5 4 5 5 5 4 4 4 5 5 5 6 6 6 6 6 6 5 5 4 4 4 4 4 4 4 5 4 4 4 4 4 4 4 4 3 3 3
4 4 4 4 4 4 4 4 4 4 4 3 3 4 5 6 6 6 6 6 6 5 5 4 4 4 4 4 4 4 3 3 3 3 3 3 3 3 3 3 2 2 2 3
3 3 4 4 4 3 3 4 3 3 2 2 2 2 5 5 6 6 6 6 5 5 4 4 3 3 3 3 3 3 3 3 3 2 2 1 1 1 1 1 1 1 1 1
3 3 3 4 4 3 2 2 2 2 2 1 2 2 3 5 6 6 6 5 4 4 4 3 2 2 2 2 2 1 1 1 1 0 0 0 0 0 0 0 -0 -0 -0 -0
2 2 2 3 3 3 2 2 2 2 2 -2 3 3 2 4 5 5 5 5 4 4 3 3 2 1 1 0 -0 -0 -1 -1 -1 -2 -2 -2 -2 -2 -2 -1 -1 -2 -2 -2
2 2 2 2 2 2 2 1 1 -1 -2 -2 2 2 4 4 4 5 4 4 4 3 2 2 1 -0 -1 -1 -1 -2 -2 -2 -2 -2 -2 -1 -1 -1 -1 -2 -2 -3 -3 -3
2 2 3 3 3 3 2 2 2 -2 -3 -2 1 -0 3 4 3 3 4 4 4 3 2 0 -1 -1 -2 -2 -2 -2 -2 -2 -2 -2 -1 -1 -2 -2 -2 -2 -3 -3 -4 -5
3 3 4 3 3 2 1 1 3 2 -1 -3 2 2 2 3 3 3 3 3 3 2 0 -1 -2 -2 -2 -3 -3 -3 -2 -2 -2 -2 -2 -2 -3 -3 -4 -4 -4 -5 -6 -6
3 2 3 2 3 2 2 2 1 1 -4 -5 -1 -0 2 2 2 2 2 2 2 0 -1 -2 -2 -3 -3 -3 -3 -3 -3 -3 -3 -3 -3 -4 -4 -5 -5 -6 -6 -7 -7 -8
2 2 1 2 2 2 2 0 1 1 1 -4 -6 1 1 1 1 1 1 1 0 -1 -2 -3 -3 -3 -3 -3 -4 -3 -3 -4 -4 -5 -5 -6 -7 -8 -8 -9 -9 -9 -9 -9
2 1 1 1 1 1 1 1 1 1 -1 -1 -2 0 0 0 -0 -0 -0 -0 -1 -2 -2 -3 -4 -4 -3 -4 -4 -4 -5 -5 -6 -7 -8 -9 -9 -10 -10 -10 -11 -11 -11 -11
1 -0 -0 -1 -1 -0 -0 0 0 0 0 -0 -1 -1 -0 -1 -1 -1 -1 -1 -2 -3 -3 -3 -4 -4 -4 -5 -6 -6 -7 -8 -9 -9 -10 -10 -10 -11 -11 -11 -12 -12 -12 -12
-0 0 0 -0 1 0 -1 -0 -0 -1 -2 -1 -2 -1 -1 -1 -2 -2 -2 -2 -3 -4 -4 -4 -4 -5 -6 -6 -7 -8 -9 -9 -10 -10 -11 -11 -12 -12 -12 -12 -12 -12 -13 -13
-2 -2 -1 -0 -0 -1 -1 -1 -1 -1 -1 -2 -2 -2 -2 -2 -2 -3 -4 -4 -5 -5 -5 -5 -5 -6 -6 -7 -8 -9 -10 -10 -11 -11 -12 -12 -12 -13 -13 -13 -13 -13 -14 -14
-2 -2 -2 -2 -2 -2 -2 -2 -2 -2 -3 -3 -3 -3 -2 -3 -3 -4 -4 -5 -5 -4 -5 -6 -6 -7 -7 -8 -9 -10 -10 -11 -11 -12 -13 -13 -13 -13 -13 -14 -14 -14 -14 -15
-3 -3 -3 -4 -3 -4 -4 -3 -2 -3 -3 -3 -4 -3 -3 -4 -4 -4 -5 -5 -5 -6 -6 -7 -7 -7 -8 -9 -10 -11 -11 -12 -13 -13 -13 -13 -14 -14 -15 -15 -15 -15 -15 -15
-4 -4 -4 -4 -5 -7 -4 -3 -3 -3 -3 -4 -4 -4 -4 -4 -5 -5 -5 -5 -6 -6 -7 -7 -8 -8 -9 -10 -11 -12 -13 -13 -13 -13 -14 -15 -15 -15 -15 -15 -15 -16 -16 -16
-5 -5 -5 -5 -8 -4 -3 -4 -4 -5 -4 -4 -5 -4 -5 -6 -6 -6 -6 -7 -7 -8 -8 -9 -9 -9 -10 -11 -12 -13 -13 -13 -14 -14 -15 -15 -16 -16 -16 -16 -16 -16 -16 -16
-5 -5 -5 -8 -8 -8 -4 -4 -4 -6 -6 -4 -5 -6 -6 -6 -7 -6 -8 -8 -8 -9 -9 -10 -10 -11 -11 -13 -13 -13 -13 -14 -14 -15 -15 -16 -16 -16 -16 -16 -16 -17 -17 -17
-6 -6 -6 -7 -7 -7 -5 -5 -6 -7 -6 -5 -6 -7 -7 -8 -8 -9 -9 -9 -9 -10 -10 -11 -11 -12 -12 -13 -13 -14 -14 -14 -15 -15 -16 -16 -17 -17 -17 -17 -17 -17 -17 -17
-5 -7 -7 -8 -8 -9 -6 -7 -7 -7 -7 -7 -8 -8 -9 -9 -10 -10 -10 -10 -11 -11 -12 -12 -12 -12 -13 -13 -14 -14 -14 -15 -15 -15 -16 -17 -17 -18 -17 -17 -17 -17 -18 -18
-7 -6 -6 -7 -6 -6 -7 -7 -7 -8 -8 -8 -9 -9 -10 -10 -10 -10 -11 -11 -12 -13 -13 -13 -13 -13 -13 -14 -14 -15 -15 -15 -15 -16 -16 -17 -18 -18 -18 -18 -18 -18 -18 -18
-7 -6 -7 -7 -7 -7 -8 -8 -8 -9 -9 -9 -10 -10 -10 -11 -11 -11 -11 -12 -13 -13 -13 -14 -14 -14 -14 -14 -15 -15 -15 -16 -16 -16 -16 -17 -17 -18 -18 -18 -18 -18 -18 -18
-7 -7 -7 -8 -8 -9 -9 -9 -10 -10 -10 -10 -10 -10 -11 -11 -11 -12 -12 -13 -13 -14 -14 -14 -14 -15 -15 -15 -15 -15 -16 -16 -16 -16 -17 -17 -18 -18 -18 -18 -18 -19 -19 -18
-7 -7 -8 -9 -9 -9 -10 -10 -10 -10 -10 -11 -11 -11 -11 -12 -12 -13 -13 -13 -13 -14 -14 -14 -15 -15 -15 -15 -15 -16 -16 -17 -17 -17 -17 -18 -18 -18 -18 -18 -18 -19 -19 -19
Height
3138 3139 3139 3142 3143 3143 3143 3143 3144 3145 3145 3143 3143 3142 3144 3142 3141 3139 3139 3140 3140 3140 3139 3138 3137 3138 3138 3138 3138 3139 3137 3137 3136 3136 3135 3135 3134 3134 3133 3133 3133 3132 3133 3132
3133 3130 3137 3137 3137 3138 3138 3138 3137 3139 3140 3138 3137 3134 3135 3134 3133 3135 3135 3135 3135 3134 3134 3133 3134 3134 3134 3134 3135 3135 3135 3135 3135 3135 3133 3134 3134 3133 3132 3132 3131 3130 3129 3127
3126 3129 3130 3131 3131 3131 3131 3132 3132 3135 3135 3133 3131 3127 3126 3127 3129 3130 3130 3131 3131 3130 3130 3129 3129 3129 3131 3131 3131 3133 3132 3132 3132 3132 3131 3130 3129 3128 3128 3127 3126 3126 3125 3124
3119 3121 3123 3123 3123 3126 3125 3128 3129 3130 3130 3129 3128 3123 3121 3123 3125 3126 3125 3125 3125 3125 3125 3126 3127 3126 3127 3128 3129 3129 3129 3129 3129 3128 3127 3127 3125 3125 3124 3123 3122 3122 3121 3119
3112 3113 3115 3115 3116 3119 3121 3122 3124 3125 3125 3124 3124 3122 3112 3118 3119 3119 3119 3119 3120 3121 3122 3120 3122 3123 3123 3123 3123 3124 3125 3125 3125 3124 3124 3125 3123 3122 3119 3118 3117 3116 3115 3114
3105 3107 3109 3110 3111 3113 3115 3119 3121 3122 3123 3119 3117 3118 3107 3108 3111 3112 3114 3115 3116 3118 3117 3117 3119 3120 3120 3119 3118 3118 3119 3120 3119 3119 3118 3117 3117 3117 3114 3113 3111 3109 3108 3106
3098 3100 3103 3105 3107 3109 3111 3115 3118 3121 3121 3113 3110 3109 3100 3103 3105 3107 3110 3109 3112 3113 3113 3113 3114 3115 3115 3115 3114 3113 3112 3112 3113 3112 3111 3108 3107 3106 3103 3101 3099 3098 3096 3094
3092 3095 3095 3098 3099 3102 3104 3109 3109 3114 3113 3105 3107 3101 3097 3099 3103 3105 3104 3105 3106 3105 3108 3109 3111 3111 3111 3110 3109 3109 3108 3106 3106 3104 3102 3100 3098 3096 3093 3092 3089 3088 3085 3083
3087 3089 3089 3093 3096 3100 3101 3102 3106 3105 3105 3101 3093 3091 3092 3095 3099 3101 3102 3102 3101 3100 3100 3102 3104 3105 3105 3105 3106 3104 3102 3100 3098 3096 3094 3091 3090 3087 3085 3083 3081 3078 3075 3074
3082 3085 3086 3088 3091 3093 3095 3098 3102 3106 3107 3104 3084 3083 3085 3090 3094 3095 3097 3098 3098 3097 3096 3096 3098 3100 3100 3098 3097 3096 3094 3093 3090 3088 3085 3084 3082 3080 3077 3075 3072 3069 3066 3064
3077 3079 3081 3082 3083 3087 3089 3089 3094 3097 3096 3093 3089 3077 3078 3081 3088 3091 3093 3092 3091 3092 3094 3093 3093 3092 3091 3090 3088 3086 3085 3083 3081 3079 3077 3075 3073 3071 3069 3067 3063 3061 3058 3056
3070 3071 3071 3076 3076 3080 3082 3083 3086 3085 3087 3084 3085 3067 3075 3079 3081 3083 3086 3088 3088 3088 3087 3086 3086 3086 3085 3083 3082 3079 3077 3075 3073 3070 3068 3066 3064 3062 3059 3057 3054 3053 3051 3047
3061 3061 3066 3069 3071 3070 3071 3073 3076 3076 3078 3072 3080 3069 3074 3073 3076 3080 3081 3081 3082 3083 3081 3080 3080 3078 3076 3074 3073 3071 3068 3066 3064 3062 3060 3058 3055 3053 3051 3048 3046 3043 3041 3038
3054 3052 3048 3050 3057 3057 3059 3063 3068 3069 3068 3067 3063 3066 3070 3072 3072 3073 3074 3074 3073 3073 3073 3072 3070 3069 3067 3065 3063 3061 3058 3056 3055 3054 3051 3049 3047 3045 3042 3039 3036 3033 3030 3027
3043 3041 3045 3045 3049 3051 3050 3050 3054 3057 3058 3057 3060 3059 3064 3066 3067 3066 3066 3064 3064 3065 3063 3061 3060 3059 3057 3055 3053 3050 3048 3046 3045 3044 3043 3041 3039 3037 3034 3031 3028 3024 3021 3017
3032 3032 3036 3038 3040 3043 3041 3040 3039 3046 3045 3046 3053 3048 3055 3058 3057 3056 3056 3055 3054 3053 3052 3052 3051 3050 3047 3046 3044 3041 3039 3038 3037 3036 3035 3033 3031 3028 3025 3022 3019 3016 3012 3008
3024 3025 3029 3029 3032 3035 3033 3022 3028 3033 3034 3039 3040 3042 3048 3048 3047 3045 3043 3043 3043 3044 3044 3043 3042 3040 3038 3036 3035 3033 3031 3029 3029 3028 3027 3025 3022 3019 3016 3013 3009 3006 3003 2999
3012 3019 3022 3021 3028 3027 3014 3012 3019 3022 3026 3029 3030 3034 3037 3036 3036 3035 3034 3034 3034 3034 3033 3032 3031 3030 3029 3026 3024 3023 3022 3021 3020 3019 3017 3015 3012 3010 3007 3003 3000 2997 2993 2989
3007 3012 3013 3014 3013 3009 3008 3009 3014 3017 3019 3019 3023 3025 3027 3028 3026 3026 3026 3023 3025 3024 3024 3023 3021 3019 3018 3017 3017 3015 3014 3012 3010 3008 3007 3006 3004 3001 2997 2994 2991 2987 2984 2980
2999 3002 3006 3004 3004 3004 3000 3004 3008 3008 3006 3010 3011 3014 3016 3018 3017 3020 3016 3016 3017 3016 3015 3011 3009 3009 3008 3008 3007 3005 3003 3001 3000 2999 2997 2996 2994 2991 2988 2984 2981 2978 2974 2971
2988 2993 2994 2996 2995 2992 2994 2998 3000 3004 3002 2999 3001 3004 3008 3008 3010 3007 3006 3006 3007 3007 3004 3001 3000 2999 2999 2998 2996 2995 2993 2992 2991 2989 2987 2986 2984 2981 2978 2974 2971 2968 2964 2960
2980 2985 2986 2989 2988 2987 2985 2987 2992 2992 2990 2992 2995 2997 2999 2999 2999 2997 2995 2995 2994 2993 2992 2991 2990 2989 2989 2988 2987 2985 2984 2982 2980 2979 2977 2975 2972 2970 2967 2964 2961 2957 2953 2950
2976 2975 2977 2979 2973 2972 2977 2978 2982 2984 2985 2988 2990 2991 2990 2990 2989 2987 2985 2985 2984 2983 2982 2982 2980 2980 2979 2979 2978 2976 2975 2972 2971 2969 2967 2964 2962 2959 2956 2953 2950 2946 2943 2938
2968 2970 2967 2968 2966 2967 2971 2973 2974 2977 2980 2980 2979 2980 2980 2980 2979 2976 2974 2974 2974 2973 2973 2972 2970 2969 2969 2969 2968 2966 2964 2963 2961 2959 2956 2953 2951 2948 2945 2942 2939 2935 2932 2928
2962 2961 2956 2955 2957 2962 2966 2967 2968 2969 2971 2971 2970 2971 2971 2969 2967 2965 2964 2965 2964 2963 2963 2962 2961 2960 2960 2959 2958 2956 2954 2953 2951 2948 2946 2943 2940 2937 2935 2932 2929 2925 2921 2917
2950 2950 2947 2949 2955 2956 2959 2960 2959 2959 2960 2960 2960 2961 2961 2958 2957 2956 2955 2955 2954 2954 2953 2952 2951 2950 2950 2949 2947 2945 2944 2942 2939 2937 2934 2931 2928 2926 2923 2921 2918 2914 2911 2907
Wind_Speed
22 24 26 20 14 13 16 18 19 21 21 23 24 25 22 24 27 27 18 15 18 20 23 23 18 15 14 12 11 11 11 11 11 11 12 11 12 11 12 12 14 15 16 18
26 29 21 20 21 22 23 23 27 25 23 25 23 27 26 27 23 16 16 18 22 25 25 20 17 15 14 12 11 11 11 10 12 11 10 9 9 15 17 18 18 20 21 21
31 24 17 19 22 26 27 28 28 25 23 23 25 30 26 17 15 15 19 22 25 25 21 19 16 14 12 11 11 11 12 12 12 13 13 14 17 20 20 20 23 25 26 26
28 30 30 31 33 30 30 29 25 23 18 13 9 7 10 12 14 19 23 26 25 20 19 19 19 17 14 13 13 14 14 15 16 17 20 22 18 19 17 20 23 23 25 27
30 24 21 22 24 25 23 23 16 18 20 19 18 11 15 16 20 24 25 25 23 21 20 20 19 18 17 15 14 14 14 14 15 16 17 18 19 21 23 25 26 28 30 31
33 27 22 19 15 15 18 14 14 11 11 6 24 22 7 14 9 15 20 23 19 20 21 20 20 19 18 16 14 13 13 14 14 16 17 19 23 27 29 31 32 34 34 35
23 25 26 21 15 15 20 16 3 2 3 6 8 15 28 12 13 14 17 16 17 20 20 20 20 18 16 15 15 15 18 21 24 27 32 35 38 40 41 41 42 41 41 41
17 9 24 23 25 16 21 23 9 7 4 3 5 9 8 13 22 16 17 18 21 21 20 19 17 15 14 15 17 21 25 29 34 38 40 42 43 42 42 43 43 44 42 38
13 12 13 15 21 23 20 29 26 13 11 5 11 17 19 17 17 17 23 26 25 24 21 18 16 15 16 17 21 28 34 37 40 42 43 43 43 43 44 44 45 44 43 42
16 7 16 23 20 27 28 18 11 12 2 5 7 11 15 8 14 19 22 25 26 23 20 18 16 16 19 25 31 37 40 41 41 41 42 42 43 44 44 44 44 43 42 40
26 19 11 20 26 29 28 28 21 17 16 5 2 8 2 4 9 10 15 21 25 22 18 17 20 23 28 33 37 39 40 40 41 42 42 42 41 41 42 40 39 36 36 37
34 15 21 28 23 23 26 30 31 27 11 13 8 31 22 26 26 19 19 21 22 21 24 23 25 31 36 38 38 38 39 40 39 39 39 38 37 34 33 33 33 35 35 38
33 19 17 10 18 25 28 35 36 38 35 30 13 20 22 21 16 13 20 24 27 28 27 30 34 37 36 34 35 37 37 36 36 36 35 35 33 32 32 33 34 36 38 39
26 31 28 24 15 12 28 34 41 40 31 27 40 43 42 35 28 28 29 28 29 32 34 38 40 34 33 35 36 36 35 34 35 35 35 33 32 32 32 34 37 38 38 37
35 35 33 35 33 31 33 35 35 37 38 33 42 40 42 40 34 30 30 30 32 39 42 39 33 33 34 36 35 35 34 34 34 34 32 32 32 34 38 39 39 37 37 38
37 30 34 36 36 35 38 44 40 47 43 40 41 49 48 44 42 36 36 39 44 41 34 31 34 35 37 37 36 33 33 35 35 32 32 35 37 40 39 36 36 38 37 37
36 34 28 22 28 29 30 47 51 51 49 47 46 49 41 38 39 39 36 36 35 31 32 34 37 38 38 36 34 34 32 32 31 33 38 39 38 36 34 37 39 38 37 36
24 25 26 16 19 8 28 37 34 26 28 34 37 34 32 31 30 30 32 29 31 35 36 38 38 39 35 33 31 29 30 31 36 38 36 36 34 33 37 39 38 37 37 38
26 24 19 14 19 23 26 22 22 19 29 29 26 33 33 34 34 29 30 32 34 35 36 38 40 36 34 32 29 29 33 38 38 34 35 32 33 36 38 39 37 37 38 40
31 32 32 14 6 7 25 28 24 24 32 33 30 27 22 21 28 28 27 31 34 36 41 36 32 31 31 30 33 37 34 31 31 30 31 32 35 38 39 37 36 38 39 40
31 33 34 31 21 23 36 36 31 19 26 25 21 18 23 26 24 26 31 36 38 42 35 31 30 30 30 33 33 31 28 29 30 31 31 34 38 37 38 36 37 38 39 40
27 20 23 25 16 15 32 27 30 27 21 21 23 23 22 29 33 35 38 40 42 38 34 30 31 33 33 32 32 30 30 30 32 32 33 36 37 39 40 37 40 40 39 41
28 36 30 26 19 22 16 12 12 13 15 19 27 30 32 36 38 38 41 40 38 34 32 30 32 34 34 33 32 32 32 33 33 33 35 37 38 41 40 39 41 39 39 41
33 37 39 38 40 36 28 20 23 25 29 30 32 31 32 37 39 42 45 43 37 32 31 32 34 36 35 35 33 34 35 34 34 36 37 38 39 39 41 38 41 39 40 43
32 36 40 41 38 29 29 28 25 27 28 27 26 28 32 37 40 44 44 40 36 32 33 35 35 37 37 35 36 37 36 34 36 38 39 40 37 39 41 39 40 39 41 45
41 44 42 30 21 20 22 23 22 23 25 26 26 29 29 31 34 37 38 38 36 39 41 42 39 40 38 35 38 38 36 37 38 39 39 38 37 41 38 38 40 41 44 47
Wind_Direction
257 251 258 280 274 267 265 263 266 275 278 275 275 276 278 273 280 283 278 273 281 281 286 295 292 290 299 301 294 293 299 300 290 282 279 277 282 286 288 295 303 307 307 303
250 253 268 260 261 265 262 260 265 271 275 274 277 277 277 272 266 257 267 276 284 286 289 288 283 288 293 296 296 300 303 299 294 291 295 304 313 320 316 320 317 319 317 315
258 260 253 253 258 259 257 260 264 273 275 271 282 281 275 254 244 248 252 265 277 278 277 278 278 280 276 276 281 288 286 286 288 292 288 293 299 306 304 305 308 309 306 305
264 260 261 261 260 256 258 263 268 268 266 268 264 277 236 239 249 261 264 267 268 259 268 270 271 271 272 269 268 272 274 279 284 292 305 310 310 307 298 306 309 306 306 302
256 264 265 255 258 253 262 262 256 267 265 258 243 259 235 248 268 272 264 264 261 258 261 261 259 262 264 261 263 267 273 279 282 285 286 289 292 294 296 294 296 297 300 299
250 250 250 247 242 239 230 240 263 246 256 254 251 241 235 238 243 246 247 259 251 256 256 257 261 257 256 258 266 275 281 288 292 292 290 293 298 299 299 298 297 297 296 293
241 236 237 237 232 227 219 219 197 273 226 234 226 235 247 243 234 233 240 242 241 247 251 254 254 251 255 267 275 281 286 292 295 299 303 306 308 309 309 309 308 308 308 306
217 228 222 229 224 218 206 197 185 211 205 245 252 241 257 234 239 234 230 237 240 241 249 250 247 248 255 267 279 290 299 303 303 305 306 307 307 307 306 304 306 306 307 308
216 226 211 214 219 213 208 214 231 256 279 284 242 255 258 250 248 248 254 258 249 248 239 232 230 247 264 278 292 301 304 304 304 304 304 303 304 305 307 307 307 308 307 306
223 210 211 217 216 218 224 236 215 220 255 259 238 251 241 250 264 261 258 262 252 236 229 232 246 263 276 287 297 304 305 304 303 302 301 302 302 303 303 304 305 306 305 304
219 222 214 215 220 228 227 226 222 232 234 201 283 261 164 236 264 280 261 249 240 231 235 256 270 277 285 296 303 305 303 301 300 299 300 301 305 306 307 307 308 305 302 299
215 236 238 243 239 236 238 245 246 229 230 225 255 264 264 279 286 280 261 247 232 246 263 269 281 291 296 300 298 296 296 297 297 299 300 302 302 301 303 302 301 300 298 298
211 219 221 232 236 237 237 239 239 242 243 242 230 261 277 285 280 276 262 257 259 267 267 277 285 291 294 293 294 295 296 296 295 295 295 295 295 297 298 299 298 297 297 296
215 225 223 222 230 212 228 242 245 243 241 246 248 262 267 272 271 274 274 261 264 266 275 285 288 287 287 291 292 294 293 291 290 291 291 292 294 296 298 299 299 299 299 299
226 227 234 241 244 249 256 254 248 245 252 243 261 261 268 273 275 271 268 259 260 276 283 282 280 285 289 292 293 292 289 286 288 290 290 291 296 298 299 298 297 298 301 301
224 230 236 245 253 256 254 257 258 259 259 254 254 262 269 273 272 268 268 272 275 276 273 276 284 290 293 292 291 287 286 287 288 287 292 294 295 295 295 295 298 301 301 301
231 233 232 238 246 252 261 258 259 260 261 262 256 271 280 274 273 272 271 271 273 267 277 284 289 293 293 290 286 285 282 280 286 292 293 290 291 292 294 297 299 300 300 299
229 236 233 234 242 237 251 256 265 258 259 262 266 271 277 275 274 273 272 271 273 279 282 287 292 294 291 289 286 283 280 281 287 293 287 287 287 290 294 297 298 299 300 301
231 233 225 220 215 251 254 250 255 259 269 273 264 275 278 272 270 267 274 272 274 276 282 291 292 288 286 288 289 282 281 286 288 283 282 281 284 290 293 296 297 298 298 299
229 233 231 202 197 215 268 272 268 265 264 277 283 286 272 263 263 277 269 272 276 281 290 291 284 283 285 291 287 287 288 285 283 281 280 282 285 288 291 293 295 296 297 299
218 229 231 243 243 254 259 266 264 246 269 284 289 277 274 278 280 280 285 284 282 288 291 285 282 283 288 289 290 290 288 288 286 285 284 285 285 289 293 290 293 296 298 300
230 215 226 229 239 257 256 246 248 270 275 274 276 284 285 289 289 289 288 289 292 290 287 285 284 287 290 292 291 292 292 289 287 287 285 283 286 291 291 292 294 295 297 300
232 239 241 232 248 254 260 247 250 261 266 270 279 281 285 285 286 285 286 288 287 282 286 284 285 288 291 292 291 293 294 288 287 288 286 285 289 290 294 293 294 295 297 301
249 252 246 251 256 257 260 260 269 272 274 280 282 282 277 278 281 282 283 288 281 279 280 285 286 287 290 291 293 294 293 288 288 289 288 289 290 292 294 295 296 296 297 302
253 257 255 256 258 259 264 271 271 274 278 279 283 284 280 273 278 278 283 285 276 275 278 284 283 281 287 290 290 291 290 286 286 286 287 288 289 290 291 295 295 294 297 302
252 257 257 259 270 271 271 278 272 262 270 278 283 283 282 277 278 277 275 275 275 272 276 281 287 281 286 286 287 289 288 285 285 288 290 289 288 292 290 293 295 293 297 302